Elmira, NY

5:05 AM EDT on March 24, 2017 (GMT -0400)
Elmira-Corning Regional

Weather History for KELM - July, 2012

Change the Weather History Date:

Friday, July 13, 2012

  Actual Average Record
Temperature  
Mean Temperature 77 °F -  
Max Temperature 91 °F 82 °F 99 °F (1983)
Min Temperature 64 °F 56 °F 44 °F (1965)
Cooling Degree Days 12    
Growing Degree Days 27 (Base 50)    
Moisture  
Dew Point 61 °F    
Average Humidity 60    
Maximum Humidity 90    
Minimum Humidity 31    
Precipitation  
Precipitation 0.00 in - - ()
Sea Level Pressure  
Sea Level Pressure 30.16 in    
Wind  
Wind Speed 3 mph (SW)    
Max Wind Speed 12 mph    
Max Gust Speed -    
Visibility 10 miles    
Events      
Averages and records for this station are not official NWS values.
T = Trace of Precipitation, MM = Missing Value Source: NWS Daily Summary

Daily Weather History Graph

Daily Weather History Graph

Search for Another Location

Airport or City:

Trip Planner

Search our weather history database for the weather conditions in past years. The results will help you decide how hot, cold, wet, or windy it might be!

Date:

Astronomy

Jul. 13, 2012 Rise Set
Actual Time 5:43 AM EDT 8:42 PM EDT
Civil Twilight 5:09 AM EDT 9:16 PM EDT
Nautical Twilight 4:27 AM EDT 9:58 PM EDT
Astronomical Twilight 3:36 AM EDT 10:48 PM EDT
Moon 1:20 AM EDT (7/13) 4:09 PM EDT (7/13)
Length of Visible Light 16h 06m
Length of Day
14h 59m
Waning Crescent, 26% of the Moon is Illuminated
Jul 13
Waning Crescent
Jul 19
New
Jul 26
First Quarter
Aug 1
Full
Aug 9
Last Quarter

Hourly Weather History & Observations

Time (EDT) Temp. Heat Index Dew Point Humidity Pressure Visibility Wind Dir Wind Speed Gust Speed Precip Events Conditions
12:53 AM 71.1 °F - 63.0 °F 75% 30.15 in 10.0 mi Calm Calm - N/A   Overcast
1:53 AM 68.0 °F - 63.0 °F 84% 30.15 in 10.0 mi Calm Calm - N/A   Clear
2:53 AM 66.9 °F - 62.1 °F 84% 30.16 in 9.0 mi Calm Calm - N/A   Mostly Cloudy
3:53 AM 66.9 °F - 62.1 °F 84% 30.15 in 9.0 mi Calm Calm - N/A   Mostly Cloudy
4:53 AM 66.0 °F - 62.1 °F 87% 30.17 in 8.0 mi Calm Calm - N/A   Scattered Clouds
5:53 AM 64.0 °F - 61.0 °F 90% 30.18 in 8.0 mi Calm Calm - N/A   Mostly Cloudy
6:51 AM 66.2 °F - 62.6 °F 88% 30.20 in 8.0 mi Calm Calm - N/A   Partly Cloudy
6:53 AM 66.9 °F - 62.1 °F 84% 30.18 in 8.0 mi Calm Calm - N/A   Scattered Clouds
7:53 AM 71.1 °F - 63.0 °F 75% 30.19 in 10.0 mi Calm Calm - N/A   Partly Cloudy
8:53 AM 75.0 °F - 63.0 °F 66% 30.19 in 10.0 mi Calm Calm - N/A   Partly Cloudy
9:53 AM 79.0 °F - 61.0 °F 54% 30.19 in 10.0 mi SW 3.5 mph - N/A   Clear
10:53 AM 82.9 °F 83.7 °F 62.1 °F 49% 30.18 in 10.0 mi SSW 5.8 mph - N/A   Clear
11:53 AM 84.0 °F 84.0 °F 60.1 °F 44% 30.18 in 10.0 mi West 4.6 mph - N/A   Clear
12:53 PM 87.1 °F 86.5 °F 59.0 °F 39% 30.17 in 10.0 mi Calm Calm - N/A   Clear
1:53 PM 89.1 °F 87.7 °F 57.0 °F 34% 30.15 in 10.0 mi South 10.4 mph - N/A   Clear
2:53 PM 90.0 °F 88.1 °F 55.9 °F 31% 30.14 in 10.0 mi SSW 10.4 mph - N/A   Partly Cloudy
3:53 PM 88.0 °F 86.7 °F 57.0 °F 35% 30.14 in 10.0 mi SW 10.4 mph - N/A   Clear
4:53 PM 87.1 °F 86.5 °F 59.0 °F 39% 30.13 in 10.0 mi SSW 8.1 mph - N/A   Clear
5:53 PM 86.0 °F 85.0 °F 57.9 °F 38% 30.13 in 10.0 mi WSW 11.5 mph - N/A   Partly Cloudy
6:53 PM 82.9 °F 82.8 °F 59.0 °F 44% 30.13 in 10.0 mi SW 11.5 mph - N/A   Partly Cloudy
7:53 PM 81.0 °F 81.9 °F 62.1 °F 52% 30.14 in 10.0 mi SW 5.8 mph - N/A   Clear
8:53 PM 80.1 °F 81.1 °F 61.0 °F 52% 30.14 in 10.0 mi WSW 10.4 mph - N/A   Clear
9:53 PM 78.1 °F - 61.0 °F 56% 30.16 in 10.0 mi WSW 8.1 mph - N/A   Clear
10:53 PM 75.9 °F - 61.0 °F 60% 30.16 in 10.0 mi West 5.8 mph - N/A   Clear
11:53 PM 75.0 °F - 61.0 °F 62% 30.16 in 10.0 mi Calm Calm - N/A   Clear